Time,TemperatureF,DewpointF,PressureIn,WindDirection,WindDirectionDegrees,WindSpeedMPH,WindSpeedGustMPH,Humidity,HourlyPrecipIn,Conditions,Clouds,dailyrainin,SoftwareType,DateUTC
2017-02-23 00:01:00,56.7,53.5,29.63,North,360,2.0,11.0,89,0.00,,,0.00,VWS V15.00,2017-02-23 05:01:00,
2017-02-23 00:06:00,56.6,53.4,29.63,North,360,2.0,9.0,89,0.00,,,0.00,VWS V15.00,2017-02-23 05:06:00,
2017-02-23 00:11:00,56.5,53.3,29.63,North,360,3.0,9.0,89,0.00,,,0.00,VWS V15.00,2017-02-23 05:11:00,
2017-02-23 00:16:00,56.2,53.0,29.62,North,360,5.0,11.0,89,0.00,,,0.00,VWS V15.00,2017-02-23 05:16:00,
2017-02-23 00:21:00,55.9,52.7,29.62,North,360,3.0,11.0,89,0.00,,,0.00,VWS V15.00,2017-02-23 05:21:00,
2017-02-23 00:26:00,55.7,52.8,29.62,North,360,3.0,11.0,90,0.00,,,0.00,VWS V15.00,2017-02-23 05:26:00,
2017-02-23 00:31:00,55.4,52.5,29.62,North,360,1.0,11.0,90,0.00,,,0.00,VWS V15.00,2017-02-23 05:31:00,
2017-02-23 00:36:00,55.2,52.6,29.62,North,360,4.0,6.0,91,0.00,,,0.00,VWS V15.00,2017-02-23 05:36:00,
2017-02-23 00:41:00,55.3,53.0,29.62,North,360,3.0,12.0,92,0.00,,,0.00,VWS V15.00,2017-02-23 05:41:00,
2017-02-23 00:46:00,55.2,52.6,29.61,North,360,4.0,12.0,91,0.00,,,0.00,VWS V15.00,2017-02-23 05:46:00,
2017-02-23 00:51:00,55.1,52.5,29.61,North,360,3.0,12.0,91,0.00,,,0.00,VWS V15.00,2017-02-23 05:51:00,
2017-02-23 00:56:00,55.1,52.5,29.61,North,360,2.0,12.0,91,0.00,,,0.00,VWS V15.00,2017-02-23 05:56:00,
2017-02-23 01:01:00,55.0,52.7,29.61,North,360,2.0,12.0,92,0.00,,,0.00,VWS V15.00,2017-02-23 06:01:00,
2017-02-23 01:06:00,55.0,52.7,29.61,North,360,5.0,12.0,92,0.00,,,0.00,VWS V15.00,2017-02-23 06:06:00,
2017-02-23 01:11:00,55.0,52.7,29.61,North,360,4.0,12.0,92,0.00,,,0.00,VWS V15.00,2017-02-23 06:11:00,
2017-02-23 01:16:00,54.9,52.6,29.61,North,360,5.0,12.0,92,0.00,,,0.00,VWS V15.00,2017-02-23 06:16:00,
2017-02-23 01:21:00,54.8,52.5,29.61,North,360,5.0,12.0,92,0.00,,,0.00,VWS V15.00,2017-02-23 06:21:00,
2017-02-23 01:26:00,54.8,52.5,29.61,North,360,2.0,12.0,92,0.00,,,0.00,VWS V15.00,2017-02-23 06:26:00,
2017-02-23 01:31:00,54.7,52.4,29.61,North,360,3.0,12.0,92,0.00,,,0.00,VWS V15.00,2017-02-23 06:31:00,
2017-02-23 01:36:00,54.6,52.3,29.60,North,360,6.0,6.0,92,0.00,,,0.00,VWS V15.00,2017-02-23 06:36:00,
2017-02-23 01:41:00,54.7,52.7,29.60,North,360,3.0,10.0,93,0.00,,,0.00,VWS V15.00,2017-02-23 06:41:00,
2017-02-23 01:46:00,54.9,52.9,29.60,North,360,4.0,11.0,93,0.00,,,0.00,VWS V15.00,2017-02-23 06:46:00,
2017-02-23 01:51:00,54.9,52.9,29.60,North,360,4.0,11.0,93,0.00,,,0.00,VWS V15.00,2017-02-23 06:51:00,
2017-02-23 01:56:00,54.9,52.9,29.60,North,360,3.0,11.0,93,0.00,,,0.00,VWS V15.00,2017-02-23 06:56:00,
2017-02-23 02:01:00,55.0,52.7,29.60,North,360,8.0,11.0,92,0.00,,,0.00,VWS V15.00,2017-02-23 07:01:00,
2017-02-23 02:06:00,55.1,53.1,29.60,North,360,2.0,10.0,93,0.00,,,0.00,VWS V15.00,2017-02-23 07:06:00,
2017-02-23 02:11:00,55.0,52.7,29.60,North,360,15.0,15.0,92,0.00,,,0.00,VWS V15.00,2017-02-23 07:11:00,
2017-02-23 02:16:00,55.1,53.1,29.59,North,360,10.0,15.0,93,0.00,,,0.00,VWS V15.00,2017-02-23 07:16:00,
2017-02-23 02:21:00,55.2,52.9,29.59,North,360,8.0,15.0,92,0.00,,,0.00,VWS V15.00,2017-02-23 07:21:00,
2017-02-23 02:26:00,55.2,52.9,29.59,North,360,1.0,15.0,92,0.00,,,0.00,VWS V15.00,2017-02-23 07:26:00,
2017-02-23 02:31:00,55.3,53.0,29.59,North,360,2.0,16.0,92,0.00,,,0.00,VWS V15.00,2017-02-23 07:31:00,
2017-02-23 02:36:00,55.4,53.1,29.59,North,360,3.0,11.0,92,0.00,,,0.00,VWS V15.00,2017-02-23 07:36:00,
2017-02-23 02:41:00,55.4,53.1,29.59,North,360,9.0,11.0,92,0.00,,,0.00,VWS V15.00,2017-02-23 07:41:00,
2017-02-23 02:47:00,55.3,53.0,29.59,North,360,1.0,11.0,92,0.00,,,0.00,VWS V15.00,2017-02-23 07:47:00,
2017-02-23 02:52:00,55.1,52.8,29.59,North,360,5.0,11.0,92,0.00,,,0.00,VWS V15.00,2017-02-23 07:52:00,
2017-02-23 02:57:00,55.0,52.7,29.59,North,360,5.0,11.0,92,0.00,,,0.00,VWS V15.00,2017-02-23 07:57:00,
2017-02-23 03:02:00,55.0,52.7,29.58,North,360,4.0,11.0,92,0.00,,,0.00,VWS V15.00,2017-02-23 08:02:00,
2017-02-23 03:07:00,55.1,53.1,29.59,North,360,4.0,10.0,93,0.00,,,0.00,VWS V15.00,2017-02-23 08:07:00,